Temperature
22 21 21 21 20 20 19 19 18 18 17 16 16 15 15 15 14 14 14 14 14 14 13 13 13 13 13 14 14 14 14 14 14 15 15 15 15 16 16 16 16 16 16
21 21 21 21 20 20 19 19 18 17 17 16 16 15 15 14 14 14 14 14 14 13 13 13 13 13 13 13 14 14 14 14 14 14 14 15 15 15 15 16 16 16 16
21 21 21 20 20 20 19 19 18 17 17 16 16 15 15 14 14 14 14 14 13 13 13 13 13 13 13 13 13 13 13 14 14 14 14 14 15 15 15 15 15 16 16
22 21 21 20 20 20 19 19 18 17 17 16 16 15 15 14 14 14 14 13 13 13 13 13 13 13 13 13 13 13 13 13 14 14 14 14 14 14 15 15 15 15 15
22 21 21 21 20 20 19 18 18 17 17 16 16 15 15 14 14 14 14 13 13 13 13 13 13 13 13 13 13 13 13 13 13 13 13 14 14 14 14 14 15 15 15
22 22 21 20 20 19 19 18 18 17 17 16 15 15 15 14 14 14 14 14 13 13 13 13 13 13 13 13 13 13 13 13 13 13 13 13 14 14 14 14 14 15 15
22 21 21 20 20 19 19 18 18 17 16 16 15 15 15 14 14 14 14 14 14 13 13 13 13 13 13 13 13 13 13 13 13 13 13 13 13 14 14 14 14 14 15
22 22 21 21 20 20 19 18 18 17 16 16 15 15 15 14 14 14 14 14 14 13 13 13 13 13 13 13 13 13 13 13 13 13 13 13 13 13 13 14 14 14 14
22 22 22 21 20 20 19 19 18 17 16 16 15 15 15 14 14 14 14 14 14 13 13 13 13 13 13 13 13 13 13 13 13 13 13 13 13 13 13 14 14 14 14
22 22 22 21 21 20 19 19 18 17 17 16 16 15 15 14 14 14 14 14 14 14 14 13 13 13 13 13 13 13 13 13 13 13 13 13 13 13 13 13 13 14 14
22 22 22 21 21 20 19 19 18 17 17 16 16 15 15 14 14 14 14 14 14 14 14 13 13 13 13 13 13 13 13 13 13 13 13 13 13 13 13 13 13 13 13
23 22 22 21 21 20 19 19 18 18 17 16 16 15 15 15 14 14 14 14 14 14 14 13 13 13 13 13 13 13 13 13 13 13 13 13 13 13 13 13 13 13 13
23 22 22 21 21 20 20 19 18 18 17 17 16 16 15 15 15 14 14 14 14 14 14 14 14 13 13 13 13 13 13 13 13 13 13 13 13 13 13 13 13 13 13
22 22 21 21 21 20 20 19 19 18 17 17 16 16 15 15 15 14 14 14 14 14 14 14 13 13 13 13 13 13 13 13 13 13 13 13 13 13 13 13 13 13 13
22 21 21 21 21 20 20 19 19 18 18 17 17 16 16 15 15 15 14 14 14 14 14 14 14 14 13 13 13 13 13 13 13 13 13 13 13 13 13 13 13 13 13
22 22 21 21 21 20 20 19 19 18 18 17 17 16 16 15 15 15 15 14 14 14 14 14 14 14 14 13 13 13 13 13 13 13 13 13 13 13 13 13 13 13 13
22 22 22 21 21 21 20 20 19 19 18 18 17 17 16 16 15 15 15 14 14 14 14 14 14 14 13 13 13 13 13 13 13 13 13 13 13 13 13 13 13 13 13
21 22 22 22 21 21 20 20 19 19 18 18 17 17 16 16 16 15 15 14 14 14 14 14 14 13 13 13 13 13 13 13 13 13 13 13 13 13 13 13 13 13 13
21 22 22 21 21 21 20 20 19 19 18 18 18 17 17 16 16 15 15 15 14 14 14 14 14 14 14 14 13 13 13 13 13 13 13 13 13 13 13 13 13 13 13
21 21 21 21 21 21 20 20 19 19 18 18 18 18 17 17 16 16 15 15 15 14 14 14 14 14 14 14 13 13 13 13 13 13 13 13 13 13 13 13 13 13 13
20 20 20 20 20 20 20 19 19 19 19 18 18 18 17 17 16 16 16 15 15 14 14 14 14 14 14 14 13 13 13 13 13 13 13 13 13 13 12 12 12 12 12
20 20 20 20 19 19 19 19 19 19 18 18 18 17 17 17 16 16 16 15 15 14 14 14 14 14 14 13 13 13 13 13 13 13 13 12 12 12 12 12 12 12 12
19 19 19 19 19 19 18 18 18 18 18 18 18 17 17 17 16 16 16 15 15 14 14 14 14 14 14 13 13 13 13 13 13 12 12 12 12 12 12 12 12 12 12
18 18 18 18 18 18 18 18 18 18 18 17 17 17 17 17 16 16 16 15 15 15 14 14 14 14 14 14 13 13 13 12 12 12 12 12 12 11 11 11 11 11 11
17 17 17 17 17 17 17 17 17 17 17 17 17 17 17 16 16 16 16 15 15 15 15 15 14 14 14 14 13 13 13 12 12 12 12 11 11 11 11 11 11 11 10
16 16 16 16 16 17 17 17 17 16 16 16 16 16 16 16 16 16 15 15 15 15 14 14 14 14 14 13 13 13 12 12 12 12 11 11 11 11 11 10 10 10 10
Wind_Speed
7 8 9 10 9 8 9 8 8 6 5 3 3 2 1 0 1 1 1 1 2 2 2 1 2 2 1 2 2 1 2 2 2 2 3 3 2 1 0 1 1 1 2
8 8 8 8 9 9 8 8 8 7 5 4 3 2 2 1 1 1 1 1 1 1 1 1 1 1 1 2 2 1 1 2 2 2 2 3 4 3 2 0 1 1 1
13 10 9 8 9 9 9 9 8 7 6 5 3 3 3 2 2 2 2 2 1 1 1 1 1 1 0 1 1 1 1 1 2 1 2 2 1 2 3 2 1 1 0
11 10 10 9 10 9 8 9 8 7 6 5 4 4 2 1 2 2 2 3 2 2 1 1 1 1 1 1 1 1 1 2 0 1 1 1 2 1 1 3 2 0 1
13 13 11 11 10 9 9 9 8 7 6 5 5 4 3 2 2 1 2 2 3 3 2 2 2 1 1 1 1 0 1 2 2 1 0 1 1 1 2 1 2 2 1
11 11 9 9 8 8 8 8 8 6 5 5 5 5 4 3 1 1 1 2 2 3 3 3 2 1 1 2 2 2 2 2 2 2 1 2 1 1 1 1 1 1 2
11 11 11 10 10 10 9 8 9 6 5 5 4 5 5 5 3 2 2 2 2 3 4 2 2 1 1 2 1 1 2 2 2 2 2 2 2 2 2 2 0 1 1
11 12 13 12 11 11 10 9 9 7 6 5 5 5 5 3 3 3 3 3 3 3 3 2 2 1 1 0 1 1 1 2 2 2 2 2 2 2 3 3 2 1 2
11 12 11 12 12 11 11 11 10 7 7 6 6 5 4 4 3 3 2 2 3 3 2 1 1 1 1 0 1 1 1 1 2 2 2 2 1 2 2 2 3 3 1
10 10 11 12 11 11 9 9 10 9 7 7 6 5 5 5 4 3 2 2 3 2 1 1 1 1 1 0 1 1 1 1 1 2 2 2 1 1 1 2 2 3 3
11 10 10 10 10 9 9 9 9 8 7 7 6 5 5 4 4 3 3 3 2 2 2 1 1 1 1 1 1 1 1 1 1 1 2 2 1 1 1 2 2 2 3
10 10 10 9 9 10 9 10 9 9 8 7 6 6 5 4 4 3 3 2 2 2 2 1 1 1 1 0 1 1 1 1 1 1 1 1 1 1 1 2 2 2 2
6 6 7 9 10 10 10 10 10 10 8 8 7 6 5 5 5 4 3 2 2 1 1 1 1 1 1 1 1 1 1 2 2 2 2 2 2 2 1 2 2 2 2
6 6 7 8 9 10 10 10 10 10 9 8 8 7 7 7 6 5 4 3 2 2 1 1 2 1 1 1 0 1 1 1 1 1 2 2 3 3 3 2 2 2 2
5 7 8 8 8 8 8 9 10 9 9 9 9 8 7 7 6 5 4 3 2 2 2 2 1 1 1 1 1 1 1 1 0 0 1 1 2 3 4 3 3 3 2
6 7 7 7 8 9 10 9 10 10 9 10 10 9 7 7 6 6 5 4 3 2 2 2 2 1 1 2 2 2 2 1 1 1 1 1 1 1 3 3 5 5 4
6 6 8 9 9 9 10 11 11 9 10 11 10 9 9 8 7 7 6 5 4 3 3 2 2 2 2 2 3 3 3 1 1 1 1 1 1 0 1 1 1 2 4
4 6 6 7 7 7 7 9 8 9 10 10 10 10 9 9 8 7 7 6 4 4 4 4 4 3 3 3 2 3 3 1 1 2 2 2 2 1 2 2 1 1 1
4 5 6 6 6 6 6 7 8 8 9 10 11 11 11 10 9 8 8 6 5 4 4 4 4 4 3 3 2 4 2 1 0 1 1 2 1 2 3 3 2 0 1
3 3 2 2 3 5 5 6 8 8 10 11 11 11 11 11 11 10 8 6 5 6 5 4 4 4 4 3 3 5 3 2 0 1 1 1 1 1 3 4 3 2 1
3 2 1 1 4 4 4 6 7 10 11 9 8 9 11 11 11 9 7 6 6 5 5 4 4 4 4 4 4 5 3 3 2 1 1 1 0 2 3 4 3 3 2
4 2 1 3 3 2 4 6 8 9 6 6 7 9 10 10 9 9 8 7 7 6 5 4 3 3 3 4 4 5 6 5 4 2 2 1 1 3 4 3 3 4 4
5 3 2 3 4 2 4 6 7 5 5 6 7 8 8 8 8 9 9 7 7 6 6 5 5 4 3 3 4 5 6 6 4 2 3 2 3 4 4 5 5 4 3
6 4 3 4 5 5 4 6 5 4 6 7 7 7 8 7 7 6 7 7 8 8 7 7 6 5 3 3 3 2 3 4 4 2 3 5 6 5 5 4 4 3 3
6 5 4 5 7 6 6 5 4 4 5 7 6 6 7 8 7 6 5 7 8 9 9 8 8 7 7 7 8 6 5 5 5 4 3 3 3 3 3 3 3 3 3
6 6 6 6 7 6 6 5 4 5 6 6 6 5 5 6 6 6 3 1 4 7 11 11 10 7 8 10 10 10 9 9 9 6 4 3 3 3 3 3 2 2 2
Wind_Direction
171 163 158 151 144 146 142 143 140 143 131 113 111 103 82 340 14 333 53 52 35 33 36 1 352 3 7 334 341 355 3 350 354 25 0 349 347 357 212 173 173 190 192
158 164 155 149 149 151 148 146 147 148 145 145 155 163 164 209 235 304 359 352 350 355 27 28 326 333 359 360 7 42 32 352 27 78 62 5 354 351 355 345 183 166 158
171 172 161 155 153 155 157 151 149 147 146 139 115 80 57 35 16 347 324 303 288 302 331 291 268 300 199 300 307 115 122 17 351 52 117 123 247 312 332 340 37 89 126
172 171 166 165 165 164 154 146 148 148 149 137 128 134 143 181 233 241 262 287 294 296 296 286 269 260 229 237 258 162 149 129 22 344 38 143 168 148 330 336 345 345 172
175 176 176 173 167 159 152 151 147 151 155 146 143 144 159 201 238 254 281 298 301 299 291 289 284 263 230 227 238 222 154 150 156 157 110 48 48 85 135 321 329 344 314
176 175 169 159 156 156 152 150 148 158 162 153 154 161 171 177 179 258 276 290 295 299 296 293 291 264 238 232 225 208 184 173 162 162 152 143 128 155 126 147 285 303 300
172 168 166 167 165 164 161 157 156 167 171 159 165 175 180 177 188 218 235 253 276 286 286 290 282 273 259 239 213 192 195 184 174 177 181 179 183 173 155 142 146 340 316
179 179 179 175 173 173 169 164 166 172 174 169 174 177 180 180 201 216 223 235 242 255 267 273 268 268 280 240 159 149 191 177 184 193 181 180 190 175 168 163 147 78 356
188 188 183 179 178 178 177 173 171 174 181 181 177 178 186 191 206 224 233 244 250 253 258 252 251 282 285 190 126 122 170 158 181 191 184 184 203 186 175 166 157 151 157
192 191 188 187 186 183 180 174 173 178 182 184 186 185 196 204 208 212 239 254 258 261 241 235 250 288 296 267 135 125 185 143 190 195 176 197 218 209 184 173 168 165 165
194 193 193 192 187 180 176 177 179 178 182 189 191 187 201 208 207 215 235 243 248 253 234 226 217 245 275 253 178 188 151 143 179 203 183 212 205 193 193 171 159 168 160
196 193 190 184 183 184 184 183 183 184 189 188 187 194 199 199 204 222 240 232 228 239 228 191 167 193 213 190 172 207 178 174 198 229 181 200 177 178 185 168 175 182 177
194 191 186 187 192 192 191 191 189 192 191 184 183 189 195 198 205 216 225 215 204 223 204 151 172 202 210 203 203 195 203 205 210 210 190 193 160 171 189 181 182 193 181
181 185 196 202 202 199 196 195 198 193 188 185 185 192 199 202 206 206 206 204 192 191 201 196 203 209 212 203 174 147 168 191 219 213 201 197 185 193 190 183 185 175 156
193 197 202 207 207 205 203 199 199 194 189 186 192 201 202 200 198 195 199 199 188 190 187 168 175 189 187 204 175 150 150 159 148 279 241 228 207 198 191 182 182 164 157
212 212 210 208 209 207 204 201 201 198 188 190 199 199 191 192 195 195 193 186 184 180 166 172 188 204 241 224 169 144 134 153 170 245 285 284 271 215 196 186 179 173 169
228 219 215 215 215 210 203 202 203 194 189 196 199 196 190 191 197 194 184 190 194 186 189 206 205 223 258 233 181 164 148 157 207 225 248 277 281 206 163 184 157 193 201
257 242 229 225 221 212 206 202 192 188 193 198 200 198 192 194 193 188 192 197 193 193 203 215 217 224 259 253 206 166 142 146 225 224 212 218 266 242 188 168 145 250 273
253 246 233 225 216 210 205 190 189 190 194 202 204 201 194 192 189 193 199 197 190 197 206 213 211 216 255 259 198 153 128 136 306 286 218 196 230 249 177 151 152 102 323
289 277 279 236 213 218 193 182 194 193 204 209 208 201 194 192 195 199 199 194 191 201 205 214 212 207 224 243 192 161 144 154 232 335 330 239 204 217 157 149 153 165 250
310 313 323 255 236 221 183 191 197 208 214 211 204 198 196 196 197 196 194 189 190 194 202 211 219 214 220 229 204 178 166 179 182 192 280 301 230 113 140 152 161 184 171
330 328 309 288 277 218 191 206 217 221 209 195 197 200 199 199 196 189 192 188 185 189 199 205 219 231 229 221 216 196 185 174 166 185 203 214 112 102 103 119 130 123 110
319 313 293 291 295 261 212 221 235 218 196 193 201 202 198 199 189 188 190 188 187 192 200 198 207 220 224 226 213 199 185 169 160 173 174 149 114 97 84 84 96 96 97
317 312 311 300 293 283 258 242 237 207 192 200 207 201 192 195 193 191 191 190 193 196 198 199 204 207 207 214 209 196 182 168 156 142 121 107 95 86 80 71 66 73 100
319 315 294 278 277 279 276 272 239 202 204 209 207 205 199 194 192 192 196 198 203 203 200 203 198 193 206 216 200 183 182 178 172 142 108 97 95 92 77 68 63 61 72
320 314 301 288 285 282 275 270 244 212 206 216 213 208 205 198 191 185 185 223 210 209 206 201 192 200 200 188 185 182 179 175 160 139 139 146 149 148 143 127 98 75 78
Height
1495 1498 1500 1501 1503 1504 1505 1506 1506 1507 1506 1506 1506 1505 1505 1504 1503 1502 1500 1499 1497 1496 1494 1493 1492 1491 1490 1489 1489 1489 1489 1489 1489 1490 1490 1491 1492 1493 1494 1495 1496 1498 1500
1495 1497 1498 1500 1501 1502 1503 1504 1505 1505 1505 1505 1505 1504 1504 1503 1502 1501 1500 1498 1496 1495 1493 1492 1491 1490 1489 1488 1488 1487 1488 1488 1488 1489 1489 1490 1492 1491 1492 1493 1495 1496 1498
1491 1494 1497 1498 1500 1501 1502 1503 1504 1504 1504 1504 1504 1503 1503 1502 1501 1500 1499 1497 1495 1494 1492 1491 1490 1489 1488 1487 1487 1486 1487 1487 1488 1488 1489 1490 1490 1490 1491 1492 1493 1494 1496
1489 1492 1495 1497 1498 1500 1501 1502 1502 1503 1503 1503 1502 1502 1502 1501 1500 1499 1498 1496 1495 1493 1492 1490 1489 1488 1487 1486 1485 1485 1485 1486 1486 1487 1488 1490 1490 1490 1490 1491 1492 1493 1494
1487 1490 1492 1495 1497 1498 1499 1500 1501 1501 1501 1501 1501 1501 1500 1500 1499 1498 1497 1496 1494 1493 1491 1489 1488 1486 1485 1485 1484 1484 1484 1485 1485 1486 1487 1488 1489 1490 1490 1490 1491 1492 1493
1486 1489 1491 1494 1495 1497 1498 1499 1499 1500 1500 1500 1500 1500 1499 1499 1498 1497 1496 1495 1493 1492 1490 1489 1487 1485 1484 1484 1483 1483 1483 1484 1484 1485 1486 1487 1488 1489 1489 1490 1490 1491 1493
1485 1487 1490 1492 1493 1495 1496 1497 1497 1498 1498 1498 1498 1498 1498 1498 1497 1496 1495 1494 1493 1491 1490 1488 1486 1485 1484 1483 1483 1482 1482 1483 1483 1484 1485 1486 1487 1488 1489 1489 1490 1491 1492
1483 1485 1487 1489 1491 1492 1494 1495 1495 1496 1497 1497 1497 1497 1497 1496 1496 1495 1494 1493 1492 1491 1489 1488 1486 1485 1483 1482 1482 1482 1482 1482 1483 1483 1484 1485 1486 1487 1488 1489 1489 1490 1491
1482 1483 1485 1487 1489 1490 1491 1492 1493 1494 1495 1495 1495 1495 1495 1495 1495 1494 1494 1493 1492 1490 1489 1487 1486 1485 1483 1482 1481 1481 1481 1481 1482 1483 1483 1484 1485 1486 1487 1488 1488 1490 1490
1480 1481 1483 1485 1486 1488 1489 1491 1492 1492 1493 1493 1494 1494 1494 1494 1494 1493 1492 1492 1491 1490 1488 1487 1486 1484 1483 1482 1481 1481 1481 1481 1481 1482 1482 1483 1484 1484 1485 1486 1487 1488 1489
1477 1479 1480 1482 1484 1485 1487 1488 1489 1490 1491 1492 1492 1493 1493 1493 1493 1492 1492 1491 1490 1489 1488 1487 1486 1484 1483 1482 1481 1481 1481 1481 1481 1481 1481 1482 1482 1483 1484 1485 1486 1486 1488
1475 1477 1478 1480 1481 1483 1484 1486 1487 1488 1489 1490 1490 1491 1491 1491 1491 1491 1490 1490 1489 1488 1487 1486 1485 1484 1483 1482 1481 1481 1480 1480 1480 1480 1480 1480 1481 1481 1482 1483 1484 1485 1486
1474 1475 1476 1477 1479 1480 1481 1483 1484 1486 1487 1488 1488 1489 1489 1489 1489 1489 1489 1489 1488 1488 1487 1486 1485 1484 1483 1482 1481 1481 1480 1480 1479 1479 1479 1479 1480 1480 1481 1482 1483 1483 1484
1472 1473 1474 1475 1476 1477 1479 1480 1482 1483 1484 1485 1486 1486 1487 1487 1487 1488 1487 1487 1487 1486 1486 1485 1484 1483 1482 1482 1481 1480 1480 1479 1479 1479 1479 1479 1479 1479 1480 1481 1481 1482 1483
1470 1471 1472 1473 1474 1475 1476 1477 1479 1480 1481 1482 1483 1484 1485 1485 1485 1486 1486 1486 1485 1485 1485 1484 1483 1483 1482 1481 1481 1480 1480 1479 1479 1478 1478 1478 1478 1479 1479 1480 1480 1481 1481
1468 1469 1469 1470 1471 1472 1473 1474 1475 1477 1478 1479 1480 1481 1482 1483 1483 1483 1484 1484 1484 1483 1483 1483 1482 1482 1481 1481 1480 1480 1479 1479 1478 1478 1478 1478 1478 1478 1478 1479 1479 1479 1480
1466 1466 1467 1467 1468 1469 1470 1470 1472 1473 1475 1476 1477 1478 1479 1480 1480 1481 1481 1482 1482 1482 1481 1481 1481 1480 1480 1480 1480 1479 1479 1478 1478 1477 1477 1477 1477 1477 1477 1478 1478 1478 1478
1465 1464 1464 1465 1465 1466 1467 1468 1469 1470 1471 1472 1473 1475 1476 1477 1477 1478 1478 1479 1479 1479 1479 1479 1479 1479 1479 1479 1478 1478 1478 1477 1477 1477 1476 1476 1476 1476 1476 1476 1476 1477 1477
1464 1463 1462 1462 1463 1463 1464 1465 1465 1466 1467 1468 1469 1471 1472 1473 1474 1475 1475 1476 1477 1477 1477 1477 1477 1477 1477 1477 1477 1477 1476 1476 1476 1475 1475 1475 1475 1475 1475 1475 1475 1475 1475
1462 1461 1461 1460 1460 1461 1461 1461 1462 1462 1463 1464 1465 1467 1468 1469 1470 1471 1472 1473 1473 1474 1474 1474 1475 1475 1475 1475 1475 1475 1475 1474 1474 1474 1474 1473 1473 1473 1474 1474 1474 1474 1474
1460 1460 1459 1458 1458 1458 1458 1458 1458 1458 1459 1460 1461 1462 1463 1465 1466 1467 1468 1469 1470 1471 1471 1471 1472 1472 1472 1472 1473 1473 1473 1472 1472 1472 1472 1472 1472 1472 1472 1472 1472 1472 1472
1459 1458 1457 1456 1456 1455 1455 1454 1454 1454 1455 1456 1457 1458 1459 1460 1461 1463 1464 1465 1466 1467 1467 1468 1468 1469 1469 1470 1470 1470 1470 1470 1470 1470 1471 1471 1471 1470 1471 1471 1471 1471 1471
1457 1456 1455 1454 1453 1453 1452 1451 1451 1451 1451 1452 1452 1453 1454 1455 1457 1458 1459 1460 1462 1462 1463 1464 1464 1465 1466 1466 1467 1467 1468 1468 1468 1468 1469 1469 1469 1469 1469 1469 1469 1469 1469
1455 1454 1452 1451 1450 1449 1448 1448 1447 1447 1446 1446 1447 1448 1449 1450 1451 1453 1454 1455 1456 1457 1458 1459 1460 1461 1462 1462 1463 1464 1465 1465 1465 1466 1466 1467 1467 1467 1467 1467 1467 1467 1467
1453 1451 1449 1448 1446 1445 1444 1444 1443 1442 1442 1442 1442 1442 1443 1444 1446 1447 1448 1449 1451 1452 1453 1454 1456 1457 1457 1458 1460 1460 1461 1462 1462 1463 1463 1464 1464 1464 1464 1464 1465 1465 1465
1450 1448 1446 1444 1442 1441 1440 1439 1438 1438 1437 1437 1437 1437 1437 1438 1440 1441 1442 1443 1445 1447 1448 1450 1451 1452 1454 1455 1456 1456 1457 1458 1459 1459 1459 1460 1460 1461 1461 1462 1462 1462 1463